sat.trackr.live / text

‹ back to catalog

STARLINK-31785

NORAD 60131 · 2024-118U

PAYLOAD ACTIVE UNKNOWN

§ Identity

Operator
Country
US
Launch date
2024-06-24
Launch site
AFWTR
Launch vehicle
Mass (kg)
RCS (m²)

Purposes: comms

External: N2YO · Heavens-Above · Gunter

§ Orbital elements

Epoch: 2026-05-25T01:22:25.542912Z

Period
94.01 min
Inclination
53.1613°
Eccentricity
0.0001124
Mean motion
15.31703611 rev/d
Perigee alt
470.0 km
Apogee alt
471.5 km
Semi-major
6,848.9 km
B*
2.7666e-5
RAAN
31.6418°
Arg perigee
94.8259°
Mean anomaly
265.2871°
Rev number
10,739

§ Raw data

STARLINK-317851 60131U 24118U   26145.05724008  .00000494  00000+0  27666-4 0  99982 60131  53.1613  31.6418 0001124  94.8259 265.2871 15.31703611107399

JSON: /api/v1/satellites/60131 · /tle

For live sub-satellite position, see the globe view (requires WebGL).

§ Visibility from observer

Set your observer location to see the next 7 days of passes ≥ 10°. The values pass through the URL so the page stays shareable.

No JS? Fill the form by hand. The geolocation button needs JavaScript.